date,time,DOY,Ta_1_1_1,Pa_1_1_1,RH_1_1_1,LWin_1_1_1,LWout_1_1_1,SWin_1_1_1,SWout_1_1_1,PPFD_1_1_1,MWS_1_1_1,WD_1_1_1,SWC_1_1_1,Ts_1_1_1
[yyyy-mm-dd],[HH:MM],[ddd.ddd],[K],[Pa],[%],[W+1m-2],[W+1m-2],[W+1m-2],[W+1m-2],[µmol+1m-2s-1],[m+1s-1],[deg],[m+3m-3],[K]
2014-06-30,00:30,181.020,291.64333333333337,93951.933333333334,90.532666666666671,-0.83966666666666667,-9999.0,0.25399999999999995,-1.6466666666666669,-2.00000000000000004E-003,4.6566666666666672,176.88833333333332,0.38000000000000017,289.99599999999998
2014-06-30,01:00,181.041,291.54500000000013,93972.666666666672,92.505666666666670,-0.87000000000000000,-9999.0,0.26100000000000001,-2.1716666666666669,-1.00000000000000002E-003,4.9833333333333343,172.86666666666667,0.38000000000000017,289.99733333333336
2014-06-30,01:30,181.062,291.57666666666677,93960.300000000003,93.528666666666638,-0.61333333333333340,-9999.0,0.26333333333333331,-2.5919999999999996,0.0000000000000000,5.9666666666666677,174.37766666666667,0.38000000000000017,289.99566666666664
2014-06-30,02:00,181.083,291.80233333333325,93948.033333333340,92.752000000000010,-0.60566666666666669,-9999.0,0.21433333333333332,-3.0103333333333335,0.0000000000000000,5.8166666666666655,181.65566666666666,0.38000000000000017,290.01933333333346
2014-06-30,02:30,181.104,291.79000000000013,93916.766666666663,92.903333333333336,-0.61900000000000011,-9999.0,0.26466666666666666,-3.1196666666666673,-1.00000000000000002E-003,5.1466666666666665,175.68899999999996,0.37799999999999989,290.04700000000008
2014-06-30,03:00,181.124,291.87966666666654,93873.600000000006,90.950333333333347,-0.77299999999999991,-9999.0,-2.76666666666666727E-002,-3.5799999999999996,0.0000000000000000,5.1733333333333338,177.93333333333334,0.36999999999999983,290.06099999999998
2014-06-30,03:30,181.145,291.78533333333343,93859.433333333334,90.153000000000006,-0.98933333333333318,-9999.0,-0.27766666666666667,-3.4666666666666668,-1.00000000000000002E-003,5.2766666666666673,173.80033333333333,0.36999999999999983,290.05833333333339
2014-06-30,04:00,181.166,291.55300000000011,93837.600000000006,91.240333333333353,-1.0213333333333332,-9999.0,9.80000000000000177E-002,-3.0003333333333329,0.95933333333333337,4.7833333333333323,170.08866666666665,0.36999999999999983,290.03100000000012
2014-06-30,04:30,181.187,291.49033333333335,93835.800000000003,93.189666666666682,-0.69900000000000007,-9999.0,2.1899999999999999,6.9963333333333342,16.574666666666666,5.0166666666666666,173.50000000000000,0.36999999999999983,289.99333333333323
2014-06-30,05:00,181.208,291.86600000000004,93835.533333333340,92.818666666666630,-7.13333333333333180E-002,-9999.0,8.9233333333333338,42.354333333333344,68.544333333333327,4.7166666666666668,190.97766666666666,0.36999999999999983,289.97099999999995
2014-06-30,05:30,181.229,292.36433333333332,93829.399999999994,89.108999999999995,-0.80900000000000005,-9999.0,23.222333333333331,112.26466666666666,190.28033333333340,5.8233333333333350,199.14433333333332,0.36999999999999983,290.00766666666669
2014-06-30,06:00,181.249,292.52100000000013,93816.466666666660,87.808666666666653,-1.6589999999999996,-9999.0,29.372333333333337,157.00066666666669,289.36133333333328,5.4566666666666652,187.61133333333333,0.36999999999999983,290.08033333333344
2014-06-30,06:30,181.270,292.84533333333337,93812.166666666672,84.012333333333316,-2.2686666666666668,-9999.0,40.864333333333335,229.68833333333330,425.22400000000005,5.3833333333333346,189.37800000000001,0.36999999999999983,290.14966666666663
2014-06-30,07:00,181.291,293.28966666666662,93833.833333333328,79.506333333333316,-2.3996666666666666,-9999.0,62.741333333333337,353.36566666666670,667.84700000000009,5.5533333333333328,186.73300000000000,0.36999999999999983,290.21700000000004
2014-06-30,07:30,181.312,294.00233333333347,93800.066666666666,74.480666666666664,-2.7243333333333331,-9999.0,83.609666666666669,480.68566666666680,919.63799999999981,5.6233333333333331,195.76666666666668,0.36633333333333323,290.30333333333340
2014-06-30,08:00,181.333,294.61666666666667,93765.100000000006,68.442000000000007,-2.4159999999999995,-9999.0,94.550333333333342,550.34300000000007,1065.3636666666664,6.4833333333333334,196.72300000000001,0.35999999999999999,290.43733333333336
2014-06-30,08:30,181.354,295.36000000000007,93737.966666666660,64.105666666666664,-1.7293333333333332,-9999.0,109.28433333333332,643.84366666666642,1265.5300000000000,6.3133333333333326,196.14466666666667,0.35999999999999999,290.55933333333337
2014-06-30,09:00,181.374,296.22099999999989,93699.100000000006,55.955333333333328,-1.4009999999999996,-9999.0,120.30900000000000,720.01999999999975,1429.2270000000001,6.8466666666666667,202.27799999999999,0.35999999999999999,290.71600000000001
2014-06-30,09:30,181.395,296.82233333333329,93664.466666666660,50.213666666666668,-0.76966666666666639,-9999.0,129.18533333333338,786.11300000000006,1576.0806666666670,7.9166666666666661,200.40999999999997,0.35999999999999999,290.81833333333338
2014-06-30,10:00,181.416,297.18000000000006,93633.766666666663,48.407666666666664,3.40000000000000302E-002,-9999.0,136.01266666666666,846.52800000000025,1720.6473333333333,8.8700000000000010,204.34433333333334,0.35999999999999999,290.90866666666665
2014-06-30,10:30,181.437,297.69366666666667,93616.766666666663,46.135000000000005,0.41699999999999998,-9999.0,143.21400000000000,899.49366666666674,1813.0453333333337,9.3600000000000048,200.63366666666667,0.35999999999999999,291.33966666666674
2014-06-30,11:00,181.458,298.29266666666666,93631.933333333334,42.359000000000002,0.69699999999999995,-9999.0,146.18199999999999,927.22266666666678,1883.1266666666666,9.3499999999999979,204.50000000000000,0.35533333333333322,291.77633333333335
2014-06-30,11:30,181.479,298.67866666666674,93607.600000000006,38.247666666666674,0.71400000000000008,-9999.0,147.97866666666661,957.98333333333346,1963.4139999999993,10.316666666666666,200.75533333333334,0.34999999999999981,291.96733333333333
2014-06-30,12:00,181.499,299.09433333333334,93607.699999999997,35.178666666666665,0.97266666666666646,-9999.0,149.24300000000002,973.83700000000010,1987.4269999999999,9.8433333333333337,209.57766666666666,0.34999999999999981,292.02633333333330
2014-06-30,12:30,181.520,299.26899999999995,93591.866666666669,33.420333333333339,0.83266666666666667,-9999.0,145.28600000000003,975.08433333333346,1985.3089999999995,10.756666666666666,202.59933333333331,0.34999999999999981,291.93099999999993
2014-06-30,13:00,181.541,299.64666666666665,93563.899999999994,32.161999999999999,3.66666666666667154E-002,-9999.0,135.78999999999999,905.40700000000027,1850.0290000000000,10.069999999999999,202.54466666666667,0.34999999999999981,291.86266666666666
2014-06-30,13:30,181.562,299.61766666666676,93526.966666666660,31.536333333333335,-0.83933333333333360,-9999.0,128.36066666666667,822.51466666666670,1691.6349999999995,9.5399999999999991,199.04499999999999,0.34466666666666662,291.85800000000000
2014-06-30,14:00,181.583,299.97133333333346,93505.500000000000,33.765333333333331,-0.84433333333333327,-9999.0,129.05099999999999,827.64833333333320,1700.1636666666668,9.2966666666666686,206.83266666666665,0.34466666666666662,291.83600000000007
2014-06-30,14:30,181.604,299.16200000000003,93495.566666666666,35.456333333333326,-3.1393333333333340,-9999.0,77.431999999999974,463.16799999999984,938.25499999999988,10.316666666666665,202.52166666666665,0.33999999999999991,291.84900000000010
2014-06-30,15:00,181.624,298.29866666666669,93445.266666666663,39.450333333333333,-3.4183333333333326,-9999.0,63.654333333333334,370.89000000000004,749.01866666666649,8.6066666666666674,190.26700000000000,0.33999999999999991,291.74500000000000
2014-06-30,15:30,181.645,297.28666666666675,93417.533333333340,45.542333333333325,-2.9889999999999999,-9999.0,37.577999999999996,214.88533333333328,438.47066666666672,8.9700000000000006,191.08900000000000,0.33999999999999991,291.63266666666669
2014-06-30,16:00,181.666,296.52033333333333,93441.533333333340,50.481999999999992,-2.6586666666666665,-9999.0,30.348333333333333,175.79666666666671,368.86700000000008,7.1066666666666674,189.36633333333333,0.33999999999999991,291.50566666666668
2014-06-30,16:30,181.687,295.53233333333338,93455.666666666672,50.997333333333337,-2.0936666666666670,-9999.0,32.995999999999995,190.58433333333335,399.26733333333334,8.3433333333333355,196.12099999999998,0.33999999999999991,291.41333333333330
2014-06-30,17:00,181.708,294.66866666666664,93439.633333333331,58.420666666666655,-2.0720000000000001,-9999.0,29.903333333333329,167.38666666666668,344.52699999999999,8.3600000000000012,194.38799999999998,0.33999999999999991,291.27199999999999
2014-06-30,17:30,181.729,293.64100000000002,93415.733333333337,60.760666666666680,-1.7436666666666667,-9999.0,27.486666666666665,150.21366666666663,306.92066666666670,7.2933333333333348,192.55533333333332,0.33999999999999991,291.13066666666674
2014-06-30,18:00,181.749,293.04666666666674,93394.000000000000,63.344333333333317,-1.5293333333333332,-9999.0,23.052999999999994,121.16866666666667,247.05799999999996,6.7200000000000015,190.04399999999998,0.33533333333333332,290.96233333333345
2014-06-30,18:30,181.770,292.81100000000004,93366.733333333337,66.064666666666668,-1.6499999999999997,-9999.0,19.501999999999999,99.241000000000000,201.90533333333329,4.5566666666666666,190.87833333333336,0.33833333333333326,290.83366666666666
2014-06-30,19:00,181.791,292.61233333333342,93347.166666666672,67.407666666666671,-1.3573333333333337,-9999.0,11.749000000000004,58.191666666666656,117.18633333333331,4.7933333333333330,190.09933333333331,0.33999999999999991,290.74066666666664
2014-06-30,19:30,181.812,292.46566666666672,93303.933333333334,68.421333333333322,-1.0140000000000002,-9999.0,7.8283333333333331,29.712999999999997,54.091000000000001,4.5233333333333325,176.41100000000000,0.33999999999999991,290.65999999999997
2014-06-30,20:00,181.833,292.26466666666676,93249.666666666672,68.717333333333329,-1.4390000000000001,-9999.0,5.8113333333333363,8.1503333333333305,14.488000000000000,3.7633333333333336,174.18899999999999,0.33499999999999996,290.57666666666665
2014-06-30,20:30,181.854,291.88799999999998,93257.033333333340,72.138666666666694,-1.0756666666666665,-9999.0,0.48633333333333334,-1.3476666666666666,0.62266666666666626,3.7466666666666670,168.03300000000002,0.33000000000000002,290.49733333333336
2014-06-30,21:00,181.874,291.53333333333336,93308.300000000003,74.739666666666665,-0.76099999999999990,-9999.0,0.45866666666666678,-1.7559999999999998,-2.36666666666666727E-002,3.8266666666666658,175.19999999999999,0.33000000000000002,290.41066666666671
2014-06-30,21:30,181.895,291.25566666666668,93286.866666666669,77.329666666666668,-1.2389999999999999,-9999.0,0.66599999999999993,-2.7900000000000000,-3.23333333333333389E-002,3.6833333333333331,178.14399999999998,0.33000000000000002,290.32633333333342
2014-06-30,22:00,181.916,290.92466666666667,93264.833333333328,78.426333333333318,-1.6486666666666669,-9999.0,0.97233333333333327,-3.6480000000000001,-3.63333333333333425E-002,4.2266666666666657,183.52233333333334,0.33000000000000002,290.23166666666668
2014-06-30,22:30,181.937,290.69466666666671,93229.466666666660,75.364333333333335,-1.7740000000000005,-9999.0,1.1426666666666665,-3.8226666666666662,-4.26666666666666930E-002,4.6233333333333340,183.83366666666669,0.33000000000000002,290.12599999999998
2014-06-30,23:00,181.958,290.43033333333329,93186.566666666666,73.912999999999982,-1.8636666666666664,-9999.0,1.1053333333333335,-3.7203333333333317,-4.30000000000000104E-002,4.4799999999999995,193.92133333333331,0.33000000000000002,290.00566666666663
2014-06-30,23:30,181.979,290.01266666666663,93161.833333333328,74.659333333333322,-1.9193333333333340,-9999.0,1.0383333333333333,-3.6609999999999987,-3.76666666666666886E-002,4.6866666666666665,197.53433333333336,0.33000000000000002,289.87766666666664
2014-07-01,00:00,182.000,289.65133333333358,93145.800000000003,75.876666666666679,-1.5400000000000000,-9999.0,1.0903333333333334,-3.3843333333333336,-2.93333333333333432E-002,5.0333333333333341,199.80100000000002,0.33000000000000002,289.75266666666664
